{"data":{"norad_id":64608,"intl_designator":"2025-137Q","name":"STARLINK-34519","alt_names":[],"object_type":"PAYLOAD","status":"ACTIVE","operator":null,"country":"US","launch_date":"2025-06-25","launch_site_code":"AFETR","launch_vehicle":null,"mission":null,"orbit_class":"UNKNOWN","rcs_meters":null,"size_class":null,"mass_kg":null,"dimensions":null,"purposes":["comms"],"wikipedia_slug":null,"has_3d_model":false,"image_url":null,"decayed_at":null,"tle_current":{"epoch":"2026-05-24T23:09:31.679136Z","epoch_age_seconds":71955,"freshness":"FRESH","line1":"1 64608U 25137Q   26144.96494999  .00015021  00000+0  51827-3 0  9992","line2":"2 64608  53.1590 340.8984 0001100  75.6147 284.4976 15.30197528 52410","mean_motion":15.30197528,"eccentricity":0.00011,"inclination_deg":53.159,"raan_deg":340.8984,"arg_perigee_deg":75.6147,"mean_anomaly_deg":284.4976,"bstar":0.00051827,"rev_number":5241,"period_min":94.105497731532,"perigee_km":474.46858083614,"apogee_km":475.97631991522,"semimajor_km":6853.3594503757,"source":"CELESTRAK","updated_at":"2026-05-25T13:38:20.495898Z"}}}